TimeEST,TemperatureF,Dew PointF,Humidity,Sea Level PressureIn,VisibilityMPH,Wind Direction,Wind SpeedMPH,Gust SpeedMPH,PrecipitationIn,Events,Conditions,WindDirDegrees,DateUTC
12:51 AM,39.9,32.0,73,29.94,10.0,SW,4.6,-,N/A,,Clear,230,2013-02-06 05:51:00
1:51 AM,44.1,34.0,68,29.95,10.0,SW,3.5,-,N/A,,Scattered Clouds,220,2013-02-06 06:51:00
2:51 AM,41.0,34.0,76,29.96,10.0,SSW,5.8,-,N/A,,Clear,200,2013-02-06 07:51:00
3:51 AM,39.0,32.0,76,29.96,10.0,SW,4.6,-,N/A,,Clear,220,2013-02-06 08:51:00
4:51 AM,37.9,30.9,76,29.98,10.0,Calm,Calm,-,N/A,,Clear,0,2013-02-06 09:51:00
5:51 AM,42.1,32.0,67,30.01,10.0,Calm,Calm,-,N/A,,Clear,0,2013-02-06 10:51:00
6:51 AM,41.0,35.1,79,30.05,10.0,North,5.8,-,N/A,,Clear,360,2013-02-06 11:51:00
7:51 AM,42.1,37.9,85,30.08,7.0,Calm,Calm,-,N/A,,Clear,0,2013-02-06 12:51:00
8:51 AM,46.0,36.0,68,30.11,10.0,Calm,Calm,-,N/A,,Clear,0,2013-02-06 13:51:00
9:51 AM,46.9,37.0,68,30.14,10.0,NNE,8.1,-,N/A,,Clear,20,2013-02-06 14:51:00
10:51 AM,46.9,35.1,63,30.16,10.0,NNE,8.1,-,N/A,,Clear,30,2013-02-06 15:51:00
11:51 AM,48.0,35.1,61,30.17,10.0,North,8.1,-,N/A,,Clear,10,2013-02-06 16:51:00
12:51 PM,46.9,34.0,61,30.17,10.0,NNE,12.7,-,N/A,,Clear,20,2013-02-06 17:51:00
1:51 PM,48.0,34.0,58,30.17,10.0,NNE,11.5,-,N/A,,Clear,30,2013-02-06 18:51:00
2:51 PM,46.0,33.1,61,30.19,10.0,NNE,11.5,-,N/A,,Clear,30,2013-02-06 19:51:00
3:51 PM,46.0,34.0,63,30.19,10.0,NE,9.2,-,N/A,,Clear,40,2013-02-06 20:51:00
4:51 PM,45.0,34.0,65,30.20,10.0,NE,6.9,-,N/A,,Clear,50,2013-02-06 21:51:00
5:51 PM,41.0,33.1,73,30.22,10.0,ENE,4.6,-,N/A,,Clear,60,2013-02-06 22:51:00
6:51 PM,42.1,35.1,76,30.25,10.0,East,3.5,-,N/A,,Clear,80,2013-02-06 23:51:00
7:51 PM,41.0,34.0,76,30.27,10.0,Calm,Calm,-,N/A,,Clear,0,2013-02-07 00:51:00
8:51 PM,39.0,33.1,79,30.30,9.0,ENE,3.5,-,N/A,,Clear,70,2013-02-07 01:51:00
9:51 PM,37.9,34.0,86,30.32,8.0,NE,3.5,-,N/A,,Clear,40,2013-02-07 02:51:00
10:51 PM,41.0,35.1,79,30.33,10.0,ENE,4.6,-,N/A,,Clear,70,2013-02-07 03:51:00
11:51 PM,41.0,35.1,79,30.32,8.0,East,4.6,-,N/A,,Partly Cloudy,80,2013-02-07 04:51:00